Weather History for Poplar Bluff, MO

Change the Weather History Date:

Friday, December 21, 2012

  Actual Average Record
Temperature  
Mean Temperature 37 °F -  
Max Temperature 48 °F 46 °F 68 °F (1949)
Min Temperature 24 °F 27 °F 3 °F (1929)
Degree Days  
Heating Degree Days 28    
Moisture  
Dew Point 14 °F    
Average Humidity 45    
Maximum Humidity 77    
Minimum Humidity 21    
Precipitation  
Precipitation 0.00 in - - ()
Sea Level Pressure  
Sea Level Pressure 30.25 in    
Wind  
Wind Speed 11 mph (WNW)    
Max Wind Speed 16 mph    
Max Gust Speed 25 mph    
Visibility 10 miles    
Events Snow    
Averages and records for this station are not official NWS values.
T = Trace of Precipitation, MM = Missing Value Source: NWS Daily Summary

Daily Weather History Graph

Daily Weather History Graph

Search for Another Location

Airport:

Trip Planner

Search our weather history database for the weather conditions in past years. The results will help you decide how hot, cold, wet, or windy it might be!

Date:

Astronomy

Dec. 21, 2012 Rise Set
Actual Time 7:10 AM CST 4:48 PM CST
Civil Twilight 6:41 AM CST 5:17 PM CST
Nautical Twilight 6:09 AM CST 5:50 PM CST
Astronomical Twilight 5:37 AM CST 6:22 PM CST
Moon 12:30 PM CST (12/21) 1:03 AM CST (12/21)
Length of Visible Light 10h 36m
Length of Day
9h 38m
Waxing Gibbous, 65% of the Moon is Illuminated
Dec 21
Waxing Gibbous
Dec 28
Full
Jan 4
Last Quarter
Jan 11
New
Jan 18
First Quarter

Hourly Weather History & Observations

Time (CST) Temp. Windchill Dew Point Humidity Pressure Visibility Wind Dir Wind Speed Gust Speed Precip Events Conditions
12:53 AM 33.1 °F 23.4 °F 18.0 °F 54% 30.09 in 10.0 mi West 13.8 mph 21.9 mph N/A   Clear
1:53 AM 33.1 °F 23.4 °F 17.1 °F 52% 30.12 in 10.0 mi WNW 13.8 mph 21.9 mph N/A   Clear
2:53 AM 32.0 °F 22.5 °F 17.1 °F 54% 30.14 in 10.0 mi West 12.7 mph 23.0 mph N/A   Clear
3:53 AM 32.0 °F 22.1 °F 16.0 °F 52% 30.14 in 10.0 mi WNW 13.8 mph 25.3 mph N/A   Clear
4:53 AM 30.9 °F 20.7 °F 14.0 °F 50% 30.17 in 10.0 mi WNW 13.8 mph 21.9 mph N/A   Clear
5:53 AM 30.0 °F 20.5 °F 14.0 °F 51% 30.19 in 10.0 mi West 11.5 mph - N/A   Clear
6:53 AM 30.0 °F 21.7 °F 12.9 °F 49% 30.21 in 9.0 mi West 9.2 mph - 0.00 in Snow Light Snow
7:53 AM 30.9 °F 22.8 °F 12.9 °F 47% 30.25 in 9.0 mi West 9.2 mph - 0.00 in Snow Light Snow
8:53 AM 34.0 °F 26.6 °F 12.9 °F 42% 30.27 in 9.0 mi West 9.2 mph 19.6 mph 0.00 in Snow Light Snow
9:53 AM 37.9 °F 28.9 °F 10.9 °F 33% 30.29 in 10.0 mi NW 16.1 mph 25.3 mph 0.00 in   Clear
10:53 AM 41.0 °F 33.9 °F 10.9 °F 29% 30.28 in 10.0 mi NW 12.7 mph - N/A   Clear
11:53 AM 44.1 °F 37.4 °F 12.9 °F 28% 30.27 in 8.0 mi NW 13.8 mph 23.0 mph N/A   Clear
12:53 PM 46.0 °F 39.6 °F 10.9 °F 24% 30.27 in 10.0 mi NW 15.0 mph 21.9 mph N/A   Clear
1:53 PM 46.9 °F - 10.9 °F 23% 30.26 in 10.0 mi NW 13.8 mph 19.6 mph N/A   Clear
2:53 PM 48.0 °F - 9.0 °F 21% 30.26 in 10.0 mi WNW 13.8 mph - N/A   Clear
3:53 PM 46.9 °F - 8.1 °F 21% 30.27 in 10.0 mi NW 11.5 mph - N/A   Clear
4:53 PM 42.1 °F 38.4 °F 9.0 °F 26% 30.30 in 10.0 mi WNW 5.8 mph - N/A   Clear
5:53 PM 41.0 °F 39.0 °F 8.1 °F 26% 30.31 in 10.0 mi WNW 3.5 mph - N/A   Clear
6:53 PM 34.0 °F - 14.0 °F 44% 30.32 in 10.0 mi Calm Calm - N/A   Clear
7:53 PM 30.0 °F - 19.0 °F 64% 30.33 in 10.0 mi Calm Calm - N/A   Clear
8:53 PM 27.0 °F - 18.0 °F 69% 30.33 in 10.0 mi Calm Calm - N/A   Clear
9:53 PM 28.0 °F - 19.0 °F 69% 30.34 in 10.0 mi Calm Calm - N/A   Clear
10:53 PM 26.1 °F - 19.0 °F 75% 30.34 in 10.0 mi Calm Calm - N/A   Clear
11:53 PM 24.1 °F - 18.0 °F 77% 30.33 in 10.0 mi Calm Calm - N/A   Clear